SCOUT G-1 DEB, 43331

Orbit data source: Space-Track

SCOUT G-1 DEB, 43331 is space debris in LEO originally from a launch on Tue, 26 Apr 1988 UTC launched from the Air Force Western Test Range (AFWTR). Debris objects in space refer to the collection of defunct objects orbiting the Earth. Examples of debris include non-operational satellites, rocket bodies, and fragments generated from explosions, collisions, or faulty payload assembly.

Loading next visibility...
Identifier
43331, 1988-033M
Orbit
LEO
Country
Flag of USUS
Related business
Manufacturer
Unknown
Mission
Spacecraft
Bus & Motor
Unknown
Mass
Unknown
Launch date (UTC)
1988-04-26 (38 years ago)
Launch vehicle
Unknown
Launch site
Air Force Western Test Range (AFWTR)
Object type
Payload
Rocket body
Debris
Shape & HBR
Unknown shape, 0.1 m
Radar Cross Section
Small (<0.1 m²)

Expand to show TLE details & history
Last TLE update: 1 week ago

TLE from 1 week ago
0 SCOUT G-1 DEB
1 43331U 88033M   26165.33258607  .00000503  00000-0  89992-3 0  9998
2 43331  90.3023  18.5387 0171918 172.4740 187.9046 13.35163832236301
Epoch: 2026-06-14T07:58Z
TLE epoch observation values (Epoch: 2026-06-14T07:58:55.436Z)
Latitude
0.00002°
Longitude
-3.82712°
Altitude
1,258.155 km
Speed
7.164 km/s
True Right ascension
01h 14m 09s
True Declination
0° 00' 00"
Sunlit
Object was in daylight at epoch
Visualization orbit readout
Latitude
Unknown
Longitude
Unknown
Altitude
Unknown
Speed
Unknown
Apparent Right ascension
Unknown
Apparent Declination
Unknown
Sunlit
N/A
Visualization observer readout
Local Sidereal Time
21:25:27
Azimuth
Unknown
Elevation
Unknown
Doppler factor
Unknown
Orbital elements
Apogee altitude
1,253.402 km
Perigee altitude
995.437 km
Semi-major axis
7,502.556 km
Eccentricity
0.01719
Inclination
90.3023°
RAAN
18.5387°
Arg. of periapsis
172.474°
True anomaly
187.63932°
Mean anomaly
187.9046°
Eccentric anomaly
187.7714°
Mean motion
3.33987 °/min
Orbital period
107.79 mins
BSTAR
0.00089992
Loading maneuver chart data...
Computing Atmospheric mass density...
Loading historical data...
Loading historical data...
Loading historical data...
Loading historical data...
Loading historical data...
Loading historical data...
Loading historical data...

Documentation

Showing up to 5 results
|